Left ArrowRight Arrow

44.8408, -93.29828

Hourly Observations for June 14, 2024

Temp ( °F °C ) Dew Point ( °F °C ) Humidity (%) Winds ( mph kmh ) Pressure ( in mb ) Visibility ( mi km ) Precip ( " mm )
12:53 am 00:53 Clear 68 20 49 9.4 50 50 NNW 7 11 29.93 1014 10 16 0.00 0.00
1:53 am 01:53 Clear 65 18.3 49 9.4 56 56 NW 7 11 29.95 1014 10 16 0.00 0.00
2:53 am 02:53 Clear 64 17.8 49 9.4 58 58 NW 6 9 29.97 1015 10 16 0.00 0.00
3:53 am 03:53 Clear 61 16.1 50 10 67 67 WNW 8 13 30.00 1016 10 16 0.00 0.00
4:53 am 04:53 Clear 61 16.1 51 10.6 70 70 NW 7 11 30.01 1016 10 16 0.00 0.00
5:53 am 05:53 Sunny 61 16.1 51 10.6 70 70 NNW 6 9 30.02 1017 10 16 0.00 0.00
6:53 am 06:53 Sunny 63 17.2 53 11.7 70 70 NW 5 7 30.04 1017 10 16 0.00 0.00
7:53 am 07:53 Sunny 67 19.4 52 11.1 59 59 NNW 6 9 30.06 1018 10 16 0.00 0.00
8:53 am 08:53 Sunny 70 21.1 52 11.1 53 53 VRB 5 7 30.07 1018 10 16 0.00 0.00
9:53 am 09:53 Sunny 72 22.2 52 11.1 49 49 W 6 9 30.06 1018 10 16 0.00 0.00
10:53 am 10:53 Mostly Sunny 74 23.3 51 10.6 45 45 W 9 15 30.07 1018 10 16 0.00 0.00
11:53 am 11:53 Mostly Sunny 76 24.4 50 10 40 40 NNW 7 11 30.07 1018 10 16 0.00 0.00
12:53 pm 12:53 Mostly Sunny 76 24.4 51 10.6 42 42 Calm 30.06 1018 10 16 0.00 0.00
1:53 pm 13:53 Mostly Sunny 77 25 51 10.6 40 40 NNW 8 13 30.05 1018 10 16 0.00 0.00
2:53 pm 14:53 Partly Cloudy 80 26.7 51 10.6 36 36 W 8 13 30.05 1018 10 16 0.00 0.00
3:53 pm 15:53 Partly Cloudy 80 26.7 50 10 35 35 VRB 3 6 30.03 1017 10 16 0.00 0.00
4:53 pm 16:53 Partly Cloudy 80 26.7 50 10 35 35 Calm 30.03 1017 10 16 0.00 0.00
5:53 pm 17:53 Partly Cloudy 78 25.6 50 10 37 37 SSE 7 11 30.02 1017 10 16 0.00 0.00
6:53 pm 18:53 Mostly Cloudy 79 26.1 50 10 36 36 S 3 6 30.01 1016 10 16 0.00 0.00
7:53 pm 19:53 Mostly Cloudy 78 25.6 50 10 37 37 SSE 5 7 30.02 1017 10 16 0.00 0.00
8:53 pm 20:53 Mostly Cloudy 77 25 50 10 39 39 SSW 6 9 30.02 1017 10 16 0.00 0.00
9:53 pm 21:53 Mostly Cloudy 76 24.4 51 10.6 42 42 SSW 5 7 30.02 1017 10 16 0.00 0.00
10:53 pm 22:53 Mostly Cloudy 71 21.7 53 11.7 53 53 SE 7 11 30.02 1017 10 16 0.00 0.00
11:53 pm 23:53 Mostly Cloudy 70 21.1 53 11.7 55 55 SE 7 11 30.03 1017 10 16 0.00 0.00

Powered by Vaisala Xweather